User: anonymous   Login
Location: Unspecified
(0.0000°N, 0.0000°E)
Time: 20:03:57
(UTC+00:00)
Language:

STARLINK-36175 - Orbit

View from above orbital plane
View from above orbital plane
View from above satellite
View from above satellite

Ground track
Ground track

The orbit is defined by the following mean orbital elements,

1 67012U          26145.39799513 +.00000000 +00000-0 +42847-3 0 00001
2 67012  70.0007 261.2178 0003316 269.0639  91.0141 14.98342307    04
Epoch (UTC): 25 May 2026 09:33:06
Eccentricity: 0.0003316
inclination: 70.0007°
perigee height: 570 km
apogee height: 574 km
right ascension of ascending node: 261.2178°
argument of perigee: 269.0639°
revolutions per day: 14.98342307
mean anomaly at epoch: 91.0141°

The dashed part of the orbit path shows where the satellite is in the earth's shadow,  

DLR